Date String (YYYY-MM-DD hh:mm:ss) UTC,Instrument flags,Ambient pressure (hPa),Sample flow (lpm),Bypass flow (lpm),Sample temperature (°C),Ambient temperature (°C),ASC tube jacket temperature (°C),LED temperature (°C),Box temperature (°C),Sample RH (%),Span deviation,Mass concentration (μg/m³),Mass concentration (μg/m³),Mass concentration (μg/m³)
DateTimeUTC,F1_M11,P_M11,Q1_M11,Q2_M11,T1_M11,T2_M11,T3_M11,T4_M11,T5_M11,U1_M11,ZSPAN_M11,X0_M11,X2_M11,X1_M11
2022-09-13 01:00:00,,0826.5,5.00,0.00,29.6,27.0,00.0,38.3,31.3,10.2,0003.2,0013.47,0008.81,0008.40
2022-09-13 01:01:00,,0826.5,5.00,0.00,29.6,27.4,00.0,38.3,31.4,10.5,0002.9,0013.56,0008.81,0008.42
2022-09-13 01:02:00,,0826.4,5.01,0.00,29.6,27.7,00.0,38.3,31.5,10.8,0002.8,0014.15,0008.83,0008.43
2022-09-13 01:03:00,,0826.5,5.00,0.00,29.6,28.0,00.0,38.3,31.5,10.9,0002.4,0014.18,0008.86,0008.46
2022-09-13 01:04:00,,0826.5,4.99,0.00,29.7,28.2,00.0,38.3,31.6,11.1,0002.7,0014.18,0008.86,0008.46
2022-09-13 01:05:00,,0826.4,5.00,0.00,29.7,28.4,00.0,38.4,31.7,11.2,0002.5,0014.73,0008.89,0008.50
2022-09-13 01:06:00,,0826.5,5.01,0.00,29.7,28.5,00.0,38.4,31.7,11.2,0002.5,0014.86,0008.91,0008.51
2022-09-13 01:07:00,,0826.5,4.99,0.00,29.8,28.7,00.0,38.4,31.8,11.0,0002.6,0015.17,0008.96,0008.52
2022-09-13 01:08:00,,0826.5,5.00,0.00,29.8,28.8,00.0,38.4,31.8,11.0,0002.3,0014.86,0008.99,0008.52
2022-09-13 01:09:00,,0826.5,5.01,0.00,29.9,28.9,00.0,38.5,31.9,11.0,0001.7,0015.01,0008.99,0008.52
2022-09-13 01:10:00,,0826.4,4.99,0.00,29.9,29.1,00.0,38.5,31.9,11.1,0001.5,0015.18,0008.98,0008.50
2022-09-13 01:11:00,,0826.5,5.00,0.00,30.0,28.6,00.0,38.5,31.9,11.2,0001.8,0016.14,0009.02,0008.51
2022-09-13 01:12:00,,0826.5,5.00,0.00,29.9,27.3,00.0,38.5,31.9,11.1,0002.6,0016.10,0009.07,0008.53
2022-09-13 01:13:00,,0826.5,4.99,0.00,29.9,27.0,00.0,38.5,31.8,11.2,0002.8,0016.08,0009.08,0008.54
2022-09-13 01:14:00,,0826.5,5.00,0.00,29.8,27.2,00.0,38.5,31.6,11.4,0002.6,0016.21,0009.10,0008.54
2022-09-13 01:15:00,,0826.5,4.99,0.00,29.8,27.5,00.0,38.5,31.6,11.5,0002.2,0015.99,0009.09,0008.54
2022-09-13 01:16:00,,0826.5,5.01,0.00,29.8,27.8,00.0,38.5,31.6,11.3,0002.3,0015.23,0009.07,0008.54
2022-09-13 01:17:00,,0826.5,5.00,0.00,29.8,28.0,00.0,38.5,31.7,11.4,0002.7,0014.94,0009.08,0008.55
2022-09-13 01:18:00,,0826.5,5.00,0.00,29.8,28.3,00.0,38.5,31.7,11.4,0003.2,0014.64,0009.08,0008.56
2022-09-13 01:19:00,,0826.5,5.00,0.00,29.9,28.5,00.0,38.5,31.8,11.4,0003.3,0014.96,0009.07,0008.58
2022-09-13 01:20:00,,0826.5,5.01,0.00,29.9,28.6,00.0,38.5,31.8,11.2,0003.1,0014.86,0009.09,0008.60
2022-09-13 01:21:00,,0826.5,4.98,0.00,29.9,28.8,00.0,38.6,31.9,11.2,0002.7,0014.82,0009.09,0008.60
2022-09-13 01:22:00,,0826.5,5.02,0.00,30.0,28.9,00.0,38.6,31.9,11.3,0002.8,0014.44,0009.11,0008.62
2022-09-13 01:23:00,,0826.5,5.00,0.00,30.0,29.0,00.0,38.6,32.0,11.2,0002.0,0014.13,0009.08,0008.62
2022-09-13 01:24:00,,0826.5,4.99,0.00,30.0,28.3,00.0,38.6,32.0,11.1,0001.6,0013.50,0009.13,0008.65
2022-09-13 01:25:00,,0826.5,5.00,0.00,30.0,27.1,00.0,38.6,31.9,11.1,0002.5,0013.37,0009.13,0008.67
2022-09-13 01:26:00,,0826.5,5.01,0.00,30.0,27.0,00.0,38.5,31.8,11.1,0002.8,0013.96,0009.17,0008.69
2022-09-13 01:27:00,,0826.5,4.99,0.00,29.9,27.2,00.0,38.5,31.6,11.2,0003.0,0014.11,0009.20,0008.70
2022-09-13 01:28:00,,0826.5,5.00,0.00,29.9,27.5,00.0,38.5,31.6,11.2,0002.5,0014.22,0009.19,0008.69
2022-09-13 01:29:00,,0826.5,5.00,0.00,29.8,27.8,00.0,38.5,31.7,11.2,0001.4,0014.39,0009.18,0008.69
2022-09-13 01:30:00,,0826.4,5.00,0.00,29.8,28.1,00.0,38.5,31.7,11.2,0001.1,0014.51,0009.22,0008.71
2022-09-13 01:31:00,,0826.5,5.00,0.00,29.9,28.3,00.0,38.5,31.8,11.1,0001.6,0015.05,0009.24,0008.72
2022-09-13 01:32:00,,0826.5,4.99,0.00,29.9,28.5,00.0,38.6,31.8,11.1,0002.2,0015.01,0009.25,0008.76
2022-09-13 01:33:00,,0826.5,5.00,0.00,29.9,28.6,00.0,38.6,31.8,11.1,0002.4,0014.63,0009.25,0008.76
2022-09-13 01:34:00,,0826.5,5.01,0.00,29.9,28.8,00.0,38.6,31.9,11.2,0002.2,0014.66,0009.27,0008.78
2022-09-13 01:35:00,,0826.5,5.01,0.00,30.0,28.8,00.0,38.6,31.9,11.2,0001.7,0015.28,0009.22,0008.76
2022-09-13 01:36:00,,0826.5,4.99,0.00,30.0,28.9,00.0,38.6,32.0,11.2,0001.4,0015.46,0009.26,0008.78
2022-09-13 01:37:00,,0826.5,5.01,0.00,30.0,29.0,00.0,38.7,32.0,11.2,0000.7,0015.08,0009.28,0008.80
2022-09-13 01:38:00,,0826.5,5.00,0.00,30.1,28.8,00.0,38.7,32.0,11.3,0000.6,0014.97,0009.28,0008.83
2022-09-13 01:39:00,,0826.5,5.00,0.00,30.0,27.3,00.0,38.7,31.9,11.3,0000.8,0014.94,0009.31,0008.87
2022-09-13 01:40:00,,0826.5,4.99,0.00,30.0,26.9,00.0,38.6,31.8,11.3,0001.4,0015.53,0009.36,0008.91
2022-09-13 01:41:00,,0826.5,5.00,0.00,29.9,27.0,00.0,38.6,31.7,11.4,0001.4,0016.08,0009.36,0008.92
2022-09-13 01:42:00,,0826.5,5.00,0.00,29.9,27.3,00.0,38.6,31.6,11.4,0001.2,0015.62,0009.37,0008.90
2022-09-13 01:43:00,,0826.5,5.01,0.00,29.9,27.6,00.0,38.6,31.7,11.5,0001.1,0015.63,0009.40,0008.90
2022-09-13 01:44:00,,0826.5,5.00,0.00,29.9,27.9,00.0,38.6,31.7,11.4,0001.3,0015.78,0009.42,0008.91
2022-09-13 01:45:00,,0826.5,5.00,0.00,29.9,28.1,00.0,38.6,31.7,11.3,0001.5,0016.36,0009.42,0008.91
2022-09-13 01:46:00,,0826.4,5.00,0.00,29.9,28.3,00.0,38.6,31.7,11.2,0002.3,0016.09,0009.43,0008.90
2022-09-13 01:47:00,,0826.5,5.01,0.00,29.9,28.5,00.0,38.6,31.8,11.1,0001.8,0015.91,0009.43,0008.90
2022-09-13 01:48:00,,0826.5,4.99,0.00,29.9,28.6,00.0,38.6,31.9,11.1,0002.0,0015.85,0009.41,0008.88
2022-09-13 01:49:00,,0826.5,5.00,0.00,30.0,28.7,00.0,38.6,31.9,11.1,0002.0,0015.84,0009.42,0008.88
2022-09-13 01:50:00,,0826.5,5.01,0.00,30.0,28.8,00.0,38.7,31.9,11.1,0002.1,0016.55,0009.45,0008.88
2022-09-13 01:51:00,,0826.5,5.00,0.00,30.0,28.9,00.0,38.7,32.0,11.2,0002.2,0016.78,0009.48,0008.89
2022-09-13 01:52:00,,0826.5,4.99,0.00,30.1,29.0,00.0,38.7,32.0,11.3,0002.1,0016.26,0009.49,0008.90
2022-09-13 01:53:00,,0826.5,5.00,0.00,30.1,29.0,00.0,38.7,32.0,11.4,0001.9,0016.74,0009.52,0008.92
2022-09-13 01:54:00,,0826.5,4.99,0.00,30.1,28.0,00.0,38.7,32.0,11.4,0001.7,0016.83,0009.52,0008.93
2022-09-13 01:55:00,,0826.5,5.00,0.00,30.0,27.0,00.0,38.7,31.9,11.4,0001.1,0016.56,0009.51,0008.92
2022-09-13 01:56:00,,0826.5,5.00,0.00,30.0,27.0,00.0,38.6,31.8,11.4,0001.6,0016.02,0009.52,0008.91
2022-09-13 01:57:00,,0826.5,5.00,0.00,29.9,27.2,00.0,38.6,31.7,11.5,0001.1,0015.84,0009.58,0008.93
2022-09-13 01:58:00,,0826.6,4.99,0.00,29.9,27.4,00.0,38.6,31.7,11.5,0001.6,0016.56,0009.58,0008.93
2022-09-13 01:59:00,,0826.5,5.00,0.00,29.9,27.7,00.0,38.6,31.7,11.5,0002.1,0016.89,0009.61,0008.95
